#timestamp,LO_Frequency,Hit,StdDev 
1508810415.5,286047002.6,N
1508810435.4,286047001.9,N
1508810455.2,286047000.0,N
1508810475.0,286046997.3,N
1508810475.9,286046997.3,N
1508810495.8,286046993.3,N
1508810515.6,286046994.8,N
1508810535.4,286046992.0,N
1508810555.3,286046990.9,N
1508810575.1,286046991.0,N
1508810576.0,286046991.0,N
1508810595.8,286046991.1,N
1508810615.7,286046992.7,N
1508810635.5,286046991.7,N
1508810655.3,286046994.6,N
1508810675.2,286046993.1,N
1508810695.9,286046994.5,N
1508810715.7,286046994.7,N
1508810735.6,286046993.6,N
1508810755.4,286046993.6,N
1508810775.2,286046992.6,N
1508810795.1,286046992.9,N
1508810796.0,286046992.9,N
1508810815.8,286046992.5,N
1508810835.6,286046989.0,Y
1508810855.5,286046993.6,P
1508810875.3,286046990.7,P
1508810895.1,286046992.0,P
1508810915.9,286046992.0,Y
1508810935.7,286046998.3,P
1508810955.6,286046998.6,N
1508810975.4,286046999.9,N
1508810995.2,286047002.2,N
1508811015.1,286047004.1,N
1508811016.0,286047004.1,N
1508811035.8,286047006.0,N
1508811055.6,286047007.0,N
1508811075.5,286047006.5,N
1508811095.3,286047006.2,N
1508811115.1,286047006.7,N
1508811135.9,286047006.7,N
1508811155.7,286047007.0,N
1508811175.5,286047009.2,N
1508811195.4,286047007.2,N
1508811215.2,286047005.8,N
1508811235.0,286047005.9,N
1508811235.9,286047005.9,N
1508811255.8,286047004.3,N
1508811275.6,286047001.4,N
1508811295.4,286047004.0,N
1508811315.3,286046999.9,N
1508811335.1,286046999.9,N
1508811355.8,286047001.0,N
1508811375.7,286046998.4,N
1508811395.5,286047000.7,N
1508811415.3,286046995.7,N
1508811435.2,286047002.7,N
1508811455.0,286047000.5,N
1508811455.9,286047000.5,N
1508811475.8,286047000.1,N
1508811495.6,286047002.5,N
1508811515.4,286047003.9,N
1508811535.3,286047007.4,N
1508811555.1,286047010.4,Y
1508811556.0,286047010.4,P
1508811575.8,286047007.2,N
1508811595.7,286047005.4,N
1508811615.5,286047007.6,Y
1508811635.3,286047000.4,P
1508811655.2,286047003.3,N
1508811675.0,286047004.9,N
1508811675.9,286047004.9,N
1508811695.7,286047004.1,N
1508811715.6,286047001.5,N
1508811735.4,286047003.2,N
1508811755.3,286047003.1,N
1508811775.1,286047007.1,Y
1508811776.0,286047007.1,P
1508811795.8,286047002.1,N
1508811815.7,286047002.4,N
1508811835.5,286046998.4,N
1508811855.3,286047002.7,N
1508811875.2,286047006.0,N
1508811895.0,286047005.7,N
1508811895.9,286047005.7,N
1508811915.7,286047003.6,N
1508811935.6,286047002.5,N
1508811955.4,286047002.7,N
1508811975.2,286046999.9,N
1508811995.1,286046997.0,N
1508811996.0,286046997.0,N
1508812015.8,286046996.8,N
1508812035.7,286046997.6,N
1508812055.5,286046995.8,N
1508812075.3,286046998.0,N
1508812095.2,286046997.8,N
1508812115.9,286046998.9,N
1508812135.7,286047000.6,N
1508812155.6,286046999.0,N
1508812175.4,286046998.5,N
1508812195.2,286046999.1,N
1508812215.1,286046999.2,N
1508812216.0,286046999.2,N
1508812235.8,286046998.2,N
1508812255.6,286047002.8,N
1508812275.5,286047000.3,N
1508812295.3,286046998.6,N
1508812315.1,286046998.5,N
1508812335.9,286046998.3,N
1508812355.7,286046995.0,N
1508812375.5,286046994.2,N
1508812395.4,286046992.6,N
1508812415.2,286046989.5,Y
1508812435.0,286046989.6,P
1508812435.9,286046989.6,N
1508812455.8,286046986.9,N
1508812475.6,286046989.2,N
1508812495.5,286046987.0,Y
1508812515.3,286046996.5,P
1508812535.1,286046997.4,N
1508812555.9,286046999.1,N
1508812575.7,286046997.4,N
1508812595.5,286046991.7,N
1508812615.4,286046992.3,N
1508812635.2,286046991.3,N
1508812655.0,286046990.1,Y
1508812655.9,286046990.1,P
1508812675.8,286046995.8,N
1508812695.6,286046995.0,N
1508812715.4,286046999.3,N
1508812735.3,286046998.1,N
1508812755.1,286046996.5,N
1508812775.8,286046995.6,N
1508812795.7,286046995.6,N
1508812815.5,286046997.8,N
1508812835.3,286046997.5,N
1508812855.2,286047001.1,N
1508812875.0,286047001.6,N
1508812875.9,286047001.6,N
1508812895.8,286047001.5,N
1508812915.6,286047001.4,N
1508812935.4,286047001.6,N
1508812955.3,286047000.1,N
1508812975.1,286047001.5,N
1508812976.0,286047001.5,N
1508812995.8,286047002.8,N
1508813015.7,286046999.7,N
1508813035.5,286047001.3,N
1508813055.3,286047002.1,N
1508813075.2,286047004.4,N
1508813095.9,286047001.8,N
1508813115.7,286047004.8,N
1508813135.6,286047003.7,N
1508813155.4,286047004.1,N
1508813175.2,286047001.5,N
1508813195.1,286047004.3,N
1508813196.0,286047004.3,N
1508813215.8,286047001.7,N
1508813235.6,286047005.7,N
1508813255.5,286047005.7,N
1508813275.3,286047006.4,N
1508813295.1,286047006.0,N
1508813315.9,286047006.8,N
1508813335.7,286047012.3,Y
1508813355.5,286047012.0,P
1508813375.4,286047015.5,P
1508813395.2,286047012.1,N
1508813415.0,286047013.2,N
1508813415.9,286047013.2,N
1508813435.8,286047015.5,Y
1508813455.6,286047005.9,P
1508813475.5,286047007.6,N
1508813495.3,286047009.0,P
1508813515.1,286047011.9,Y
1508813535.9,286047003.7,P
1508813555.7,286047002.4,N
1508813575.5,286046999.3,N
1508813595.4,286046996.4,N
1508813615.2,286046992.9,N
1508813635.0,286046994.0,N
1508813635.9,286046994.0,N
1508813655.8,286046992.1,N
1508813675.6,286046994.2,N
1508813695.4,286046994.1,N
1508813715.3,286046992.2,N
1508813735.1,286046992.1,N
1508813755.8,286046996.1,N
1508813775.7,286046990.7,N
1508813795.5,286046993.0,N
1508813815.3,286046998.0,N
1508813835.2,286046991.8,N
1508813855.0,286046989.1,N
1508813855.9,286046989.1,N
1508813875.7,286046987.2,N
1508813895.6,286046986.5,N
1508813915.4,286046987.6,N
1508813935.2,286046987.2,N
1508813955.1,286046988.0,N
1508813956.0,286046988.0,N
1508813975.8,286046984.6,N
1508813995.7,286046984.3,N
